Location: Boursonne
(49.2024°N, 3.0468°E)
Time: 10:04:52
(UTC+00:00)

USA 307 - Pass Details

Date: 03 March 2021
Orbit: 567 x 577 km, 54.0° (Epoch: 10 April)

Event Time Altitude Azimuth Distance (km) Brightness Sun altitude
Rises 19:55:32 0° 288° (WNW) 2,788 7.9 -23.6°
Reaches altitude 10° 19:57:52 10° 295° (WNW) 1,887 6.6 -24.0°
Enters shadow 20:01:53 47° 3° (N) 768 3.5 -24.6°
